This demonstration page uses our WeatherBlox Daily Observations layout. Learn more.

Left ArrowRight Arrow

Hourly Observations for May 25, 2019

Temp ( °F °C ) Dew Point ( °F °C ) Humidity (%) Winds ( mph kmh ) Pressure ( in mb ) Visibility ( mi km ) Precip ( " mm )
12:52 am 00:52 Mostly Cloudy 68 20 63 17.2 84 84 SSE 5 7 29.82 1010 10 16 0.00 0.00
1:52 am 01:52 Mostly Cloudy 67 19.4 65 18.3 93 93 SSE 7 11 29.81 1010 10 16 0.00 0.00
1:55 am 01:55 Mostly Cloudy 67 19.4 65 18.3 93 93 SSE 7 11 29.81 1009 10 16 0.00 0.00
2:52 am 02:52 Cloudy 69 20.6 66 18.9 90 90 S 10 17 29.81 1010 10 16 0.00 0.00
3:52 am 03:52 Cloudy 68 20 66 18.9 93 93 S 8 13 29.82 1010 8 13 0.00 0.00
3:59 am 03:59 Cloudy with Mist and Fog 68 20 66 18.9 93 93 S 9 15 29.82 1010 6 10 0.00 0.00
4:52 am 04:52 Cloudy 69 20.6 67 19.4 93 93 SSW 6 9 29.83 1010 7 11 0.00 0.00
5:52 am 05:52 Cloudy 69 20.6 66 18.9 90 90 S 10 17 29.85 1011 10 16 0.00 0.00
6:03 am 06:03 Cloudy 69 20.6 66 18.9 90 90 S 12 19 29.84 1011 10 16 0.00 0.00
6:52 am 06:52 Cloudy 69 20.6 66 18.9 90 90 SW 5 7 29.88 1012 10 16 0.00 0.00
7:09 am 07:09 Mostly Cloudy 70 21.1 66 18.9 87 87 SSW 6 9 29.88 1012 10 16 0.00 0.00
7:52 am 07:52 Mostly Cloudy 69 20.6 65 18.3 87 87 Calm 29.90 1012 10 16 0.00 0.00
8:52 am 08:52 Mostly Cloudy 69 20.6 65 18.3 87 87 NW 8 13 29.91 1013 10 16 0.00 0.00
9:52 am 09:52 Mostly Cloudy 72 22.2 64 17.8 76 76 W 6 9 29.92 1013 10 16 0.00 0.00
9:59 am 09:59 Partly Cloudy 73 22.8 64 17.8 74 74 W 7 11 29.90 1013 10 16 0.00 0.00
10:52 am 10:52 Partly Cloudy 72 22.2 61 16.1 68 68 N 12 19 29.92 1013 10 16 0.00 0.00
11:52 am 11:52 Mostly Sunny 74 23.3 61 16.1 64 64 N 12 19 29.92 1013 10 16 0.00 0.00
12:52 pm 12:52 Cloudy 74 23.3 60 15.6 62 62 N 10 17 29.94 1014 10 16 0.00 0.00
1:52 pm 13:52 Partly Cloudy 78 25.6 61 16.1 56 56 N 12 19 29.92 1013 10 16 0.00 0.00
2:52 pm 14:52 Mostly Cloudy 75 23.9 59 15 58 58 N 9 15 29.93 1014 10 16 0.00 0.00
3:52 pm 15:52 Mostly Cloudy 79 26.1 59 15 50 50 N 10 17 29.93 1014 10 16 0.00 0.00
4:52 pm 16:52 Mostly Cloudy 78 25.6 58 14.4 50 50 N 9 15 29.92 1013 10 16 0.00 0.00
5:52 pm 17:52 Mostly Cloudy 79 26.1 58 14.4 49 49 N 8 13 29.92 1013 10 16 0.00 0.00
6:52 pm 18:52 Mostly Cloudy 77 25 58 14.4 52 52 NNW 9 15 29.91 1013 10 16 0.00 0.00
7:52 pm 19:52 Mostly Cloudy 75 23.9 57 13.9 54 54 NNW 9 15 29.91 1013 10 16 0.00 0.00
8:52 pm 20:52 Mostly Cloudy 72 22.2 59 15 64 64 N 8 13 29.93 1014 10 16 0.00 0.00
9:52 pm 21:52 Cloudy 68 20 57 13.9 68 68 N 6 9 29.96 1015 10 16 0.00 0.00
10:52 pm 22:52 Cloudy 68 20 57 13.9 68 68 NNW 9 15 29.97 1015 10 16 0.00 0.00
11:52 pm 23:52 Cloudy 68 20 56 13.3 65 65 NNE 8 13 29.95 1014 10 16 0.00 0.00

Powered by AerisWeather